| time (UTC) | temp C | wind direction | speed KPH | gust KPH | rain 1hr cm | rain 24hr cm | rain mn cm | humidity % | barometer mb |
| 20260508013047 | 18 | 247 | 6.4 | 19.3 | 0.00 | 0.05 | 0.05 | 33 | 1013.0 |
| 20260508013038 | 18 | 252 | 6.4 | 19.3 | 0.00 | 0.05 | 0.05 | 34 | 1009.6 |
| 20260508011546 | 19 | 281 | 3.2 | 17.7 | 0.00 | 0.05 | 0.05 | 33 | 1012.9 |
| 20260508011525 | 19 | 236 | 3.2 | 17.7 | 0.00 | 0.05 | 0.05 | 34 | 1009.5 |
| 20260508010047 | 19 | 265 | 3.2 | 12.9 | 0.00 | 0.05 | 0.05 | 37 | 1013.0 |
| 20260508010010 | 19 | 284 | 3.2 | 12.9 | 0.00 | 0.05 | 0.05 | 37 | 1009.6 |
| 20260508004550 | 19 | 5 | 3.2 | 12.9 | 0.00 | 0.05 | 0.05 | 42 | 1013.0 |
| 20260508004508 | 19 | 355 | 3.2 | 12.9 | 0.00 | 0.05 | 0.05 | 44 | 1009.6 |
| 20260508003052 | 17 | 349 | 1.6 | 4.8 | 0.00 | 0.05 | 0.05 | 48 | 1009.7 |
| 20260508003046 | 17 | 349 | 1.6 | 4.8 | 0.00 | 0.05 | 0.05 | 48 | 1013.1 |
| 20260508001553 | 18 | 306 | 3.2 | 11.3 | 0.00 | 0.05 | 0.05 | 43 | 1009.7 |
| 20260508001547 | 18 | 252 | 3.2 | 11.3 | 0.00 | 0.05 | 0.05 | 43 | 1013.1 |
| 20260508000050 | 17 | 9 | 3.2 | 17.7 | 0.00 | 0.05 | 0.05 | 46 | 1009.6 |
| 20260508000047 | 17 | 40 | 3.2 | 17.7 | 0.00 | 0.05 | 0.05 | 45 | 1013.0 |
| 20260507234554 | 19 | 205 | 4.8 | 17.7 | 0.00 | 0.05 | 0.05 | 37 | 1013.0 |
| 20260507234532 | 19 | 210 | 6.4 | 17.7 | 0.00 | 0.05 | 0.05 | 38 | 1009.6 |
| 20260507233047 | 20 | 238 | 4.8 | 19.3 | 0.00 | 0.05 | 0.05 | 38 | 1013.0 |
| 20260507233030 | 20 | 231 | 6.4 | 19.3 | 0.00 | 0.05 | 0.05 | 39 | 1009.6 |
| 20260507231552 | 18 | 0 | 1.6 | 6.4 | 0.00 | 0.05 | 0.05 | 44 | 1013.0 |
| 20260507231522 | 18 | 236 | 1.6 | 6.4 | 0.00 | 0.05 | 0.05 | 45 | 1009.4 |
| 20260507230100 | 17 | 245 | 3.2 | 6.4 | 0.00 | 0.05 | 0.05 | 45 | 1009.6 |
| 20260507230049 | 17 | 254 | 3.2 | 6.4 | 0.00 | 0.05 | 0.05 | 45 | 1013.0 |
| 20260507224552 | 17 | 157 | 3.2 | 8.0 | 0.00 | 0.05 | 0.05 | 49 | 1009.6 |
| 20260507224545 | 17 | 135 | 3.2 | 8.0 | 0.00 | 0.05 | 0.05 | 48 | 1013.1 |
| 20260507223051 | 17 | 205 | 0.0 | 9.7 | 0.00 | 0.05 | 0.05 | 49 | 1013.3 |
| 20260507223036 | 17 | 205 | 0.0 | 9.7 | 0.00 | 0.05 | 0.05 | 49 | 1009.9 |
| 20260507221550 | 17 | 0 | 1.6 | 8.0 | 0.00 | 0.05 | 0.05 | 50 | 1013.4 |
| 20260507221532 | 17 | 153 | 1.6 | 8.0 | 0.00 | 0.05 | 0.05 | 51 | 1009.9 |
| 20260507220046 | 16 | 162 | 0.0 | 4.8 | 0.00 | 0.05 | 0.05 | 57 | 1013.6 |
| 20260507220009 | 16 | 162 | 0.0 | 3.2 | 0.00 | 0.05 | 0.05 | 58 | 1010.1 |
| 20260507214601 | 17 | 208 | 1.6 | 6.4 | 0.00 | 0.05 | 0.05 | 55 | 1010.1 |
| 20260507214544 | 17 | 207 | 0.0 | 6.4 | 0.00 | 0.05 | 0.05 | 54 | 1013.6 |
| 20260507213047 | 16 | 344 | 3.2 | 14.5 | 0.00 | 0.05 | 0.05 | 58 | 1010.4 |
| 20260507213043 | 16 | 352 | 3.2 | 14.5 | 0.00 | 0.05 | 0.05 | 57 | 1013.8 |
| 20260507211543 | 17 | 352 | 1.6 | 6.4 | 0.00 | 0.05 | 0.05 | 50 | 1014.0 |
| 20260507211541 | 17 | 346 | 1.6 | 6.4 | 0.00 | 0.05 | 0.05 | 50 | 1010.6 |
| 20260507210042 | 18 | 339 | 4.8 | 14.5 | 0.00 | 0.05 | 0.05 | 46 | 1014.0 |
| 20260507210034 | 18 | 338 | 4.8 | 14.5 | 0.00 | 0.05 | 0.05 | 47 | 1010.6 |
| 20260507204544 | 18 | 44 | 4.8 | 14.5 | 0.00 | 0.05 | 0.05 | 49 | 1013.9 |
| 20260507204515 | 18 | 325 | 4.8 | 14.5 | 0.00 | 0.05 | 0.05 | 52 | 1010.6 |
| 20260507203108 | 17 | 340 | 3.2 | 6.4 | 0.00 | 0.05 | 0.05 | 53 | 1010.7 |
| 20260507203056 | 17 | 5 | 1.6 | 14.5 | 0.00 | 0.05 | 0.05 | 51 | 1014.2 |
| 20260507203000 | 17 | 279 | 1.6 | 8.0 | 0.00 | 0.05 | 0.05 | 51 | 1010.7 |
| 20260507201547 | 17 | 327 | 4.8 | 16.1 | 0.00 | 0.05 | 0.05 | 51 | 1014.0 |
| 20260507201543 | 17 | 259 | 4.8 | 16.1 | 0.00 | 0.05 | 0.05 | 52 | 1010.8 |
| 20260507200049 | 17 | 348 | 4.8 | 12.9 | 0.00 | 0.05 | 0.05 | 52 | 1014.1 |
| 20260507200043 | 17 | 348 | 6.4 | 14.5 | 0.00 | 0.05 | 0.05 | 53 | 1010.8 |
| 20260507194542 | 16 | 277 | 1.6 | 6.4 | 0.00 | 0.05 | 0.05 | 53 | 1014.2 |
| 20260507194513 | 16 | 246 | 1.6 | 6.4 | 0.00 | 0.05 | 0.05 | 54 | 1010.9 |
| 20260507193054 | 16 | 258 | 4.8 | 8.0 | 0.00 | 0.05 | 0.05 | 55 | 1011.0 |
| 20260507191543 | 16 | 287 | 1.6 | 11.3 | 0.00 | 0.05 | 0.05 | 55 | 1014.3 |
| 20260507191539 | 16 | 351 | 1.6 | 11.3 | 0.00 | 0.05 | 0.05 | 55 | 1011.0 |
| 20260507190045 | 16 | 221 | 3.2 | 12.9 | 0.00 | 0.05 | 0.05 | 52 | 1014.5 |
| 20260507190032 | 16 | 215 | 4.8 | 11.3 | 0.00 | 0.05 | 0.05 | 52 | 1011.2 |
| 20260507184545 | 17 | 209 | 1.6 | 11.3 | 0.00 | 0.05 | 0.05 | 53 | 1014.5 |
| 20260507184523 | 17 | 209 | 3.2 | 11.3 | 0.00 | 0.05 | 0.05 | 53 | 1011.1 |
| 20260507183104 | 16 | 221 | 0.0 | 9.7 | 0.00 | 0.05 | 0.05 | 58 | 1011.2 |
| 20260507183046 | 15 | 114 | 1.6 | 9.7 | 0.00 | 0.05 | 0.05 | 56 | 1014.5 |
| 20260507181544 | 15 | 257 | 3.2 | 6.4 | 0.00 | 0.05 | 0.05 | 56 | 1014.6 |
| 20260507181539 | 15 | 257 | 3.2 | 6.4 | 0.00 | 0.05 | 0.05 | 57 | 1011.2 |
| 20260507180046 | 15 | 74 | 3.2 | 11.3 | 0.00 | 0.05 | 0.05 | 56 | 1014.5 |
| 20260507180039 | 15 | 74 | 4.8 | 9.7 | 0.00 | 0.05 | 0.05 | 57 | 1011.1 |
| 20260507174551 | 15 | 291 | 3.2 | 14.5 | 0.00 | 0.05 | 0.05 | 57 | 1014.4 |
| 20260507174519 | 15 | 283 | 3.2 | 14.5 | 0.00 | 0.05 | 0.05 | 58 | 1011.2 |
| 20260507173051 | 15 | 0 | 1.6 | 6.4 | 0.00 | 0.05 | 0.05 | 58 | 1014.4 |
| 20260507173009 | 15 | 241 | 3.2 | 6.4 | 0.00 | 0.05 | 0.05 | 59 | 1011.2 |
| 20260507171610 | 13 | 161 | 0.0 | 4.8 | 0.00 | 0.05 | 0.05 | 67 | 1011.2 |
| 20260507171608 | 13 | 161 | 0.0 | 4.8 | 0.00 | 0.05 | 0.05 | 66 | 1014.5 |
| 20260507170055 | 13 | 147 | 1.6 | 8.0 | 0.00 | 0.05 | 0.05 | 62 | 1014.5 |
| 20260507170043 | 13 | 147 | 0.0 | 8.0 | 0.00 | 0.05 | 0.05 | 62 | 1011.3 |
| 20260507164601 | 13 | 93 | 1.6 | 4.8 | 0.00 | 0.05 | 0.05 | 64 | 1014.8 |
| 20260507164550 | 13 | 345 | 1.6 | 4.8 | 0.00 | 0.05 | 0.05 | 64 | 1011.6 |
| 20260507163046 | 12 | 352 | 1.6 | 4.8 | 0.00 | 0.05 | 0.05 | 68 | 1015.1 |
| 20260507163020 | 12 | 355 | 1.6 | 4.8 | 0.00 | 0.05 | 0.05 | 68 | 1011.9 |
| 20260507161600 | 12 | 344 | 1.6 | 4.8 | 0.00 | 0.05 | 0.05 | 68 | 1015.2 |
| 20260507161525 | 12 | 344 | 1.6 | 4.8 | 0.00 | 0.05 | 0.05 | 69 | 1012.2 |
| 20260507160058 | 12 | 301 | 3.2 | 8.0 | 0.00 | 0.05 | 0.05 | 67 | 1012.2 |
| 20260507160045 | 12 | 301 | 3.2 | 12.9 | 0.00 | 0.05 | 0.05 | 67 | 1015.2 |
| 20260507154552 | 13 | 207 | 3.2 | 9.7 | 0.00 | 0.05 | 0.05 | 65 | 1015.0 |
| 20260507154550 | 13 | 211 | 3.2 | 9.7 | 0.00 | 0.05 | 0.05 | 66 | 1011.9 |
| 20260507153051 | 12 | 244 | 3.2 | 11.3 | 0.00 | 0.05 | 0.05 | 67 | 1014.9 |
| 20260507153042 | 12 | 246 | 1.6 | 11.3 | 0.00 | 0.05 | 0.05 | 67 | 1011.9 |
| 20260507151546 | 12 | 157 | 0.0 | 4.8 | 0.00 | 0.05 | 0.05 | 74 | 1014.6 |
| 20260507151536 | 12 | 157 | 0.0 | 4.8 | 0.00 | 0.05 | 0.05 | 75 | 1011.7 |
| 20260507150049 | 11 | 155 | 1.6 | 4.8 | 0.00 | 0.05 | 0.05 | 78 | 1014.5 |
| 20260507150013 | 11 | 159 | 1.6 | 4.8 | 0.00 | 0.05 | 0.05 | 77 | 1011.4 |
| 20260507144556 | 11 | 164 | 0.0 | 3.2 | 0.00 | 0.05 | 0.05 | 80 | 1011.5 |
| 20260507144551 | 11 | 164 | 0.0 | 3.2 | 0.00 | 0.05 | 0.05 | 81 | 1014.5 |
| 20260507143100 | 9 | 176 | 0.0 | 3.2 | 0.00 | 0.05 | 0.05 | 92 | 1011.3 |
| 20260507143057 | 9 | 176 | 0.0 | 3.2 | 0.00 | 0.05 | 0.05 | 92 | 1014.3 |
| 20260507141554 | 8 | 176 | 0.0 | 4.8 | 0.00 | 0.05 | 0.05 | 93 | 1014.2 |
| 20260507141540 | 8 | 176 | 0.0 | 4.8 | 0.00 | 0.05 | 0.05 | 93 | 1011.3 |
| 20260507140049 | 7 | 176 | 0.0 | 3.2 | 0.00 | 0.05 | 0.05 | 95 | 1014.2 |
| 20260507140022 | 7 | 176 | 1.6 | 3.2 | 0.00 | 0.05 | 0.05 | 95 | 1011.4 |
| 20260507134553 | 7 | 0 | 0.0 | 1.6 | 0.03 | 0.05 | 0.05 | 96 | 1014.1 |
| 20260507134525 | 7 | 160 | 0.0 | 1.6 | 0.03 | 0.05 | 0.05 | 96 | 1011.4 |
| 20260507133102 | 6 | 160 | 0.0 | 1.6 | 0.03 | 0.05 | 0.05 | 97 | 1011.2 |
| 20260507133045 | 6 | 160 | 0.0 | 1.6 | 0.03 | 0.05 | 0.05 | 96 | 1013.9 |
| 20260507133011 | 6 | 160 | 0.0 | 1.6 | 0.03 | 0.05 | 0.05 | 97 | 1011.4 |
| 20260507131607 | 5 | 160 | 0.0 | 1.6 | 0.03 | 0.05 | 0.05 | 97 | 1011.1 |
| 20260507131544 | 5 | 0 | 0.0 | 1.6 | 0.03 | 0.05 | 0.05 | 96 | 1013.7 |
| 20260507130046 | 5 | 0 | 0.0 | 3.2 | 0.03 | 0.05 | 0.05 | 96 | 1013.6 |
| 20260507130036 | 5 | 160 | 0.0 | 3.2 | 0.03 | 0.05 | 0.05 | 96 | 1011.1 |
| 20260507124542 | 5 | 0 | 0.0 | 3.2 | 0.00 | 0.03 | 0.03 | 95 | 1013.6 |
| 20260507124526 | 5 | 160 | 0.0 | 3.2 | 0.00 | 0.03 | 0.03 | 96 | 1011.1 |
| 20260507123047 | 5 | 0 | 0.0 | 3.2 | 0.00 | 0.03 | 0.03 | 96 | 1013.4 |
| 20260507123025 | 5 | 160 | 0.0 | 1.6 | 0.00 | 0.03 | 0.03 | 96 | 1010.9 |
| 20260507121545 | 5 | 160 | 0.0 | 1.6 | 0.00 | 0.03 | 0.03 | 96 | 1013.3 |
| 20260507121512 | 5 | 160 | 0.0 | 1.6 | 0.00 | 0.03 | 0.03 | 96 | 1011.0 |
| 20260507120047 | 5 | 0 | 0.0 | 3.2 | 0.00 | 0.03 | 0.03 | 95 | 1013.1 |
| 20260507120002 | 5 | 160 | 0.0 | 3.2 | 0.00 | 0.03 | 0.03 | 96 | 1010.9 |
| 20260507114556 | 5 | 160 | 0.0 | 3.2 | 0.00 | 0.03 | 0.03 | 95 | 1010.8 |
| 20260507114543 | 5 | 0 | 0.0 | 3.2 | 0.00 | 0.03 | 0.03 | 95 | 1013.1 |
| 20260507113042 | 5 | 0 | 1.6 | 3.2 | 0.00 | 0.03 | 0.03 | 95 | 1012.9 |
| 20260507113034 | 5 | 160 | 1.6 | 3.2 | 0.00 | 0.03 | 0.03 | 95 | 1010.8 |
| 20260507111547 | 5 | 0 | 0.0 | 1.6 | 0.00 | 0.03 | 0.03 | 95 | 1012.8 |
| 20260507111522 | 5 | 160 | 0.0 | 1.6 | 0.00 | 0.03 | 0.03 | 95 | 1010.8 |
| 20260507110100 | 5 | 160 | 0.0 | 3.2 | 0.00 | 0.03 | 0.03 | 95 | 1013.0 |
| 20260507110006 | 5 | 160 | 0.0 | 3.2 | 0.00 | 0.03 | 0.03 | 95 | 1011.0 |
| 20260507104600 | 5 | 160 | 0.0 | 3.2 | 0.00 | 0.03 | 0.03 | 95 | 1010.9 |
| 20260507104547 | 5 | 0 | 0.0 | 3.2 | 0.00 | 0.03 | 0.03 | 94 | 1012.8 |
| 20260507104506 | 5 | 160 | 0.0 | 3.2 | 0.00 | 0.03 | 0.03 | 95 | 1010.9 |
| 20260507103056 | 6 | 160 | 0.0 | 3.2 | 0.00 | 0.03 | 0.03 | 95 | 1010.9 |
| 20260507103045 | 6 | 160 | 0.0 | 3.2 | 0.00 | 0.03 | 0.03 | 94 | 1012.8 |
| 20260507101548 | 6 | 0 | 0.0 | 3.2 | 0.00 | 0.03 | 0.03 | 94 | 1012.8 |
| 20260507101542 | 6 | 160 | 0.0 | 3.2 | 0.00 | 0.03 | 0.03 | 95 | 1011.0 |
| 20260507100043 | 7 | 0 | 0.0 | 3.2 | 0.00 | 0.03 | 0.03 | 94 | 1012.8 |
| 20260507100022 | 7 | 160 | 0.0 | 3.2 | 0.00 | 0.03 | 0.03 | 94 | 1011.0 |
| 20260507094548 | 7 | 160 | 0.0 | 6.4 | 0.00 | 0.03 | 0.03 | 93 | 1013.0 |
| 20260507094505 | 7 | 160 | 1.6 | 4.8 | 0.00 | 0.03 | 0.03 | 94 | 1011.1 |
| 20260507093101 | 8 | 160 | 0.0 | 4.8 | 0.00 | 0.03 | 0.03 | 94 | 1010.9 |
| 20260507093052 | 8 | 0 | 0.0 | 6.4 | 0.00 | 0.03 | 0.03 | 93 | 1012.8 |
| 20260507091607 | 8 | 0 | 0.0 | 3.2 | 0.00 | 0.03 | 0.03 | 93 | 1013.0 |
| 20260507090046 | 8 | 0 | 0.0 | 3.2 | 0.00 | 0.03 | 0.03 | 93 | 1013.1 |
| 20260507090042 | 8 | 227 | 0.0 | 3.2 | 0.00 | 0.03 | 0.03 | 93 | 1011.2 |
| 20260507084544 | 8 | 254 | 0.0 | 3.2 | 0.00 | 0.03 | 0.03 | 92 | 1013.1 |
| 20260507084537 | 8 | 254 | 1.6 | 3.2 | 0.00 | 0.03 | 0.03 | 93 | 1011.3 |
| 20260507083047 | 8 | 129 | 1.6 | 3.2 | 0.03 | 0.03 | 0.03 | 92 | 1013.0 |
| 20260507083020 | 8 | 130 | 1.6 | 3.2 | 0.03 | 0.03 | 0.03 | 92 | 1011.2 |
| 20260507081547 | 8 | 0 | 0.0 | 3.2 | 0.03 | 0.03 | 0.03 | 91 | 1013.0 |
| 20260507081514 | 8 | 144 | 0.0 | 1.6 | 0.03 | 0.03 | 0.03 | 92 | 1011.2 |
| 20260507080058 | 8 | 140 | 1.6 | 8.0 | 0.03 | 0.03 | 0.03 | 90 | 1011.1 |
| 20260507080056 | 8 | 146 | 0.0 | 8.0 | 0.03 | 0.03 | 0.03 | 89 | 1012.8 |
| 20260507080002 | 8 | 148 | 0.0 | 8.0 | 0.03 | 0.03 | 0.03 | 90 | 1011.1 |
| 20260507074547 | 8 | 232 | 3.2 | 8.0 | 0.03 | 0.03 | 0.03 | 88 | 1012.4 |
| 20260507073048 | 8 | 140 | 1.6 | 4.8 | 0.00 | 0.00 | 0.00 | 85 | 1012.8 |
| 20260507073036 | 8 | 140 | 3.2 | 4.8 | 0.00 | 0.00 | 0.00 | 86 | 1011.3 |
| 20260507071547 | 9 | 64 | 1.6 | 6.4 | 0.00 | 0.00 | 0.00 | 82 | 1012.9 |
| 20260507071524 | 9 | 115 | 0.0 | 6.4 | 0.00 | 0.00 | 0.00 | 82 | 1011.4 |
| 20260507070059 | 10 | 233 | 0.0 | 4.8 | 0.00 | 0.00 | 0.00 | 82 | 1012.9 |
| 20260507070016 | 10 | 233 | 0.0 | 4.8 | 0.00 | 0.00 | 0.00 | 81 | 1011.5 |
| 20260507064546 | 11 | 22 | 4.8 | 17.7 | 0.00 | 0.00 | 0.00 | 68 | 1012.8 |
| 20260507064506 | 11 | 5 | 4.8 | 17.7 | 0.00 | 0.00 | 0.00 | 69 | 1011.5 |
| 20260507063059 | 11 | 200 | 3.2 | 11.3 | 0.00 | 0.00 | 0.00 | 69 | 1011.8 |
| 20260507063041 | 11 | 221 | 3.2 | 12.9 | 0.00 | 0.00 | 0.00 | 68 | 1013.1 |
| 20260507063001 | 11 | 175 | 3.2 | 11.3 | 0.00 | 0.00 | 0.00 | 68 | 1011.8 |
| 20260507061544 | 12 | 232 | 3.2 | 12.9 | 0.00 | 0.00 | 0.00 | 66 | 1012.2 |
| 20260507060030 | 10 | 146 | 3.2 | 6.4 | 0.00 | 0.00 | 0.00 | 74 | 1011.7 |
| 20260507054553 | 9 | 125 | 1.6 | 4.8 | 0.00 | 0.00 | 0.00 | 77 | 1013.1 |
| 20260507054514 | 9 | 130 | 1.6 | 4.8 | 0.00 | 0.00 | 0.00 | 78 | 1011.8 |
| 20260507053100 | 9 | 130 | 0.0 | 3.2 | 0.00 | 0.00 | 0.00 | 77 | 1011.3 |
| 20260507053050 | 9 | 130 | 0.0 | 3.2 | 0.00 | 0.00 | 0.00 | 77 | 1012.5 |
| 20260507051546 | 10 | 110 | 0.0 | 4.8 | 0.00 | 0.00 | 0.00 | 72 | 1011.3 |
| 20260507050043 | 11 | 109 | 0.0 | 4.8 | 0.00 | 0.00 | 0.00 | 71 | 1012.7 |
| 20260507050040 | 11 | 109 | 0.0 | 4.8 | 0.00 | 0.00 | 0.00 | 71 | 1011.4 |
| 20260507044548 | 13 | 31 | 9.7 | 19.3 | 0.00 | 0.00 | 0.00 | 57 | 1012.8 |
| 20260507044526 | 13 | 32 | 9.7 | 19.3 | 0.00 | 0.00 | 0.00 | 58 | 1011.6 |
| 20260507043048 | 14 | 17 | 9.7 | 32.2 | 0.00 | 0.00 | 0.00 | 55 | 1013.0 |
| 20260507043008 | 14 | 26 | 9.7 | 32.2 | 0.00 | 0.00 | 0.00 | 55 | 1011.7 |
| 20260507041549 | 14 | 188 | 0.0 | 3.2 | 0.00 | 0.00 | 0.00 | 62 | 1010.8 |
| 20260507040045 | 13 | 188 | 1.6 | 3.2 | 0.00 | 0.00 | 0.00 | 65 | 1012.0 |
| 20260507040043 | 13 | 188 | 1.6 | 3.2 | 0.00 | 0.00 | 0.00 | 65 | 1010.6 |
| 20260507034554 | 14 | 188 | 0.0 | 3.2 | 0.00 | 0.00 | 0.00 | 62 | 1012.1 |
| 20260507034550 | 14 | 188 | 1.6 | 3.2 | 0.00 | 0.00 | 0.00 | 62 | 1010.8 |
| 20260507033046 | 15 | 175 | 1.6 | 8.0 | 0.00 | 0.00 | 0.00 | 59 | 1011.9 |
| 20260507033030 | 15 | 175 | 0.0 | 8.0 | 0.00 | 0.00 | 0.00 | 60 | 1010.6 |
| 20260507031549 | 15 | 167 | 3.2 | 6.4 | 0.00 | 0.00 | 0.00 | 58 | 1011.9 |
| 20260507031513 | 15 | 163 | 1.6 | 6.4 | 0.00 | 0.00 | 0.00 | 59 | 1010.7 |
| 20260507030058 | 16 | 200 | 0.0 | 4.8 | 0.00 | 0.00 | 0.00 | 57 | 1010.7 |
| 20260507030048 | 16 | 200 | 0.0 | 6.4 | 0.00 | 0.00 | 0.00 | 56 | 1011.8 |
| 20260507024557 | 16 | 294 | 1.6 | 4.8 | 0.00 | 0.00 | 0.00 | 55 | 1010.7 |
| 20260507024555 | 16 | 176 | 1.6 | 6.4 | 0.00 | 0.00 | 0.00 | 55 | 1011.7 |
| 20260507023045 | 16 | 198 | 0.0 | 4.8 | 0.00 | 0.00 | 0.00 | 53 | 1011.7 |
| 20260507021549 | 17 | 226 | 1.6 | 12.9 | 0.00 | 0.00 | 0.00 | 50 | 1011.6 |
| 20260507021537 | 17 | 226 | 1.6 | 12.9 | 0.00 | 0.00 | 0.00 | 51 | 1010.5 |
| 20260507020051 | 17 | 255 | 1.6 | 6.4 | 0.00 | 0.00 | 0.00 | 49 | 1011.5 |
| 20260507020026 | 17 | 254 | 1.6 | 6.4 | 0.00 | 0.00 | 0.00 | 50 | 1010.5 |
| 20260507014545 | 17 | 197 | 0.0 | 8.0 | 0.00 | 0.00 | 0.00 | 47 | 1011.6 |
| 20260507014507 | 17 | 249 | 0.0 | 8.0 | 0.00 | 0.00 | 0.00 | 48 | 1010.6 |